Time,TemperatureF,DewpointF,PressureIn,WindDirection,WindDirectionDegrees,WindSpeedMPH,WindSpeedGustMPH,Humidity,HourlyPrecipIn,Conditions,Clouds,dailyrainin,SoftwareType,DateUTC
2013-01-20 00:00:00,35.2,29.4,29.90,SW,231,0.0,6.0,79,0.00,,,0.00,VWS V14.01,2013-01-20 05:00:00,
2013-01-20 00:02:00,35.2,29.4,29.90,WSW,238,2.0,6.0,79,0.00,,,0.00,VWS V14.01,2013-01-20 05:02:00,
2013-01-20 00:07:00,35.1,29.3,29.90,WSW,240,1.0,3.0,79,0.00,,,0.00,VWS V14.01,2013-01-20 05:07:00,
2013-01-20 00:12:00,35.1,29.3,29.89,SW,229,2.0,5.0,79,0.00,,,0.00,VWS V14.01,2013-01-20 05:12:00,
2013-01-20 00:17:00,35.1,29.3,29.89,SW,235,2.0,11.0,79,0.00,,,0.00,VWS V14.01,2013-01-20 05:17:00,
2013-01-20 00:22:00,35.1,29.3,29.90,WSW,256,2.0,11.0,79,0.00,,,0.00,VWS V14.01,2013-01-20 05:22:00,
2013-01-20 00:27:00,35.0,29.2,29.89,WSW,258,1.0,11.0,79,0.00,,,0.00,VWS V14.01,2013-01-20 05:27:00,
2013-01-20 00:32:00,35.0,29.5,29.88,WSW,239,2.0,11.0,80,0.00,,,0.00,VWS V14.01,2013-01-20 05:32:00,
2013-01-20 00:37:00,35.0,29.5,29.88,West,261,3.0,4.0,80,0.00,,,0.00,VWS V14.01,2013-01-20 05:37:00,
2013-01-20 00:42:00,35.0,29.5,29.88,SW,228,2.0,4.0,80,0.00,,,0.00,VWS V14.01,2013-01-20 05:42:00,
2013-01-20 00:47:00,35.2,29.7,29.87,WSW,252,2.0,5.0,80,0.00,,,0.00,VWS V14.01,2013-01-20 05:47:00,
2013-01-20 00:52:00,35.2,29.7,29.87,SW,236,0.0,5.0,80,0.00,,,0.00,VWS V14.01,2013-01-20 05:52:00,
2013-01-20 00:57:00,35.3,29.8,29.87,SW,224,2.0,5.0,80,0.00,,,0.00,VWS V14.01,2013-01-20 05:57:00,
2013-01-20 01:02:00,35.5,30.0,29.86,SW,216,1.0,5.0,80,0.00,,,0.00,VWS V14.01,2013-01-20 06:02:00,
2013-01-20 01:07:00,35.7,29.8,29.86,WSW,239,0.0,3.0,79,0.00,,,0.00,VWS V14.01,2013-01-20 06:07:00,
2013-01-20 01:12:00,35.9,30.0,29.86,WSW,241,2.0,5.0,79,0.00,,,0.00,VWS V14.01,2013-01-20 06:12:00,
2013-01-20 01:17:00,36.1,29.9,29.86,South,190,1.0,5.0,78,0.00,,,0.00,VWS V14.01,2013-01-20 06:17:00,
2013-01-20 01:22:00,36.4,30.2,29.85,SSW,200,2.0,5.0,78,0.00,,,0.00,VWS V14.01,2013-01-20 06:22:00,
2013-01-20 01:27:00,36.6,30.1,29.85,West,268,3.0,5.0,77,0.00,,,0.00,VWS V14.01,2013-01-20 06:27:00,
2013-01-20 01:32:00,36.8,30.3,29.85,WSW,250,2.0,6.0,77,0.00,,,0.00,VWS V14.01,2013-01-20 06:32:00,
2013-01-20 01:37:00,36.8,30.0,29.85,SW,227,2.0,5.0,76,0.00,,,0.00,VWS V14.01,2013-01-20 06:37:00,
2013-01-20 01:42:00,36.9,30.0,29.85,SSW,210,1.0,5.0,76,0.00,,,0.00,VWS V14.01,2013-01-20 06:42:00,
2013-01-20 01:47:00,37.0,30.1,29.85,SW,232,4.0,7.0,76,0.00,,,0.00,VWS V14.01,2013-01-20 06:47:00,
2013-01-20 01:52:00,37.1,29.9,29.84,SW,235,1.0,7.0,75,0.00,,,0.00,VWS V14.01,2013-01-20 06:52:00,
2013-01-20 01:57:00,37.1,29.9,29.84,SW,217,2.0,7.0,75,0.00,,,0.00,VWS V14.01,2013-01-20 06:57:00,
2013-01-20 02:02:00,37.3,30.1,29.84,West,270,1.0,7.0,75,0.00,,,0.00,VWS V14.01,2013-01-20 07:02:00,
2013-01-20 02:07:00,37.3,29.8,29.84,SSW,204,4.0,4.0,74,0.00,,,0.00,VWS V14.01,2013-01-20 07:07:00,
2013-01-20 02:12:00,37.3,29.8,29.84,SW,222,2.0,8.0,74,0.00,,,0.00,VWS V14.01,2013-01-20 07:12:00,
2013-01-20 02:17:00,37.4,29.9,29.83,SW,224,1.0,8.0,74,0.00,,,0.00,VWS V14.01,2013-01-20 07:17:00,
2013-01-20 02:22:00,37.4,29.9,29.83,SW,232,2.0,8.0,74,0.00,,,0.00,VWS V14.01,2013-01-20 07:22:00,
2013-01-20 02:27:00,37.3,29.8,29.83,SSW,212,2.0,8.0,74,0.00,,,0.00,VWS V14.01,2013-01-20 07:27:00,
2013-01-20 02:32:00,37.5,29.6,29.83,SW,224,3.0,12.0,73,0.00,,,0.00,VWS V14.01,2013-01-20 07:32:00,
2013-01-20 02:37:00,37.6,29.7,29.82,SW,217,0.0,3.0,73,0.00,,,0.00,VWS V14.01,2013-01-20 07:37:00,
2013-01-20 02:42:00,37.6,29.7,29.82,WSW,247,3.0,4.0,73,0.00,,,0.00,VWS V14.01,2013-01-20 07:42:00,
2013-01-20 02:47:00,37.7,29.8,29.82,SW,227,3.0,7.0,73,0.00,,,0.00,VWS V14.01,2013-01-20 07:47:00,
2013-01-20 02:52:00,37.7,29.8,29.82,SW,232,2.0,7.0,73,0.00,,,0.00,VWS V14.01,2013-01-20 07:52:00,
2013-01-20 02:57:00,37.7,29.8,29.82,West,263,5.0,7.0,73,0.00,,,0.00,VWS V14.01,2013-01-20 07:57:00,
2013-01-20 03:02:00,37.7,29.8,29.82,SW,220,4.0,7.0,73,0.00,,,0.00,VWS V14.01,2013-01-20 08:02:00,
2013-01-20 03:07:00,37.7,29.5,29.82,WSW,248,2.0,7.0,72,0.00,,,0.00,VWS V14.01,2013-01-20 08:07:00,
2013-01-20 03:12:00,37.6,29.4,29.81,WSW,243,2.0,7.0,72,0.00,,,0.00,VWS V14.01,2013-01-20 08:12:00,
2013-01-20 03:17:00,37.6,29.4,29.82,SW,236,3.0,7.0,72,0.00,,,0.00,VWS V14.01,2013-01-20 08:17:00,
2013-01-20 03:22:00,37.5,29.6,29.82,West,263,2.0,7.0,73,0.00,,,0.00,VWS V14.01,2013-01-20 08:22:00,
2013-01-20 03:27:00,37.4,29.5,29.81,SSW,211,2.0,7.0,73,0.00,,,0.00,VWS V14.01,2013-01-20 08:27:00,
2013-01-20 03:32:00,37.4,29.5,29.81,SW,220,1.0,7.0,73,0.00,,,0.00,VWS V14.01,2013-01-20 08:32:00,
2013-01-20 03:37:00,37.4,29.5,29.81,SSW,209,3.0,3.0,73,0.00,,,0.00,VWS V14.01,2013-01-20 08:37:00,
2013-01-20 03:42:00,37.3,29.5,29.80,SW,231,3.0,6.0,73,0.00,,,0.00,VWS V14.01,2013-01-20 08:42:00,
2013-01-20 03:47:00,37.3,29.5,29.80,SSW,198,2.0,8.0,73,0.00,,,0.00,VWS V14.01,2013-01-20 08:47:00,
2013-01-20 03:52:00,37.2,29.4,29.79,SSW,208,2.0,8.0,73,0.00,,,0.00,VWS V14.01,2013-01-20 08:52:00,
2013-01-20 03:57:00,37.2,29.4,29.79,SSW,202,2.0,8.0,73,0.00,,,0.00,VWS V14.01,2013-01-20 08:57:00,
2013-01-20 04:02:00,37.1,29.3,29.78,WSW,238,0.0,8.0,73,0.00,,,0.00,VWS V14.01,2013-01-20 09:02:00,
2013-01-20 04:07:00,37.1,29.3,29.78,SSW,200,2.0,4.0,73,0.00,,,0.00,VWS V14.01,2013-01-20 09:07:00,
2013-01-20 04:12:00,37.0,29.5,29.77,SSW,212,3.0,9.0,74,0.00,,,0.00,VWS V14.01,2013-01-20 09:12:00,
2013-01-20 04:17:00,37.0,29.5,29.77,South,177,2.0,9.0,74,0.00,,,0.00,VWS V14.01,2013-01-20 09:17:00,
2013-01-20 04:22:00,36.9,29.4,29.77,SW,223,3.0,9.0,74,0.00,,,0.00,VWS V14.01,2013-01-20 09:22:00,
2013-01-20 04:27:00,36.7,29.2,29.77,NNW,337,1.0,9.0,74,0.00,,,0.00,VWS V14.01,2013-01-20 09:27:00,
2013-01-20 04:32:00,36.6,29.4,29.76,SSW,207,3.0,9.0,75,0.00,,,0.00,VWS V14.01,2013-01-20 09:32:00,
2013-01-20 04:37:00,36.5,29.3,29.76,West,260,2.0,7.0,75,0.00,,,0.00,VWS V14.01,2013-01-20 09:37:00,
2013-01-20 04:42:00,36.4,29.2,29.76,SW,223,3.0,14.0,75,0.00,,,0.00,VWS V14.01,2013-01-20 09:42:00,
2013-01-20 04:47:00,36.3,29.1,29.75,South,180,5.0,14.0,75,0.00,,,0.00,VWS V14.01,2013-01-20 09:47:00,
2013-01-20 04:52:00,36.3,29.5,29.75,SSW,195,0.0,14.0,76,0.00,,,0.00,VWS V14.01,2013-01-20 09:52:00,
2013-01-20 04:57:00,36.2,29.4,29.75,West,259,12.0,14.0,76,0.00,,,0.00,VWS V14.01,2013-01-20 09:57:00,
2013-01-20 05:02:00,36.3,29.5,29.75,SW,224,4.0,14.0,76,0.00,,,0.00,VWS V14.01,2013-01-20 10:02:00,
2013-01-20 05:07:00,36.2,29.4,29.74,WNW,290,4.0,7.0,76,0.00,,,0.00,VWS V14.01,2013-01-20 10:07:00,
2013-01-20 05:12:00,36.2,29.4,29.74,WSW,253,3.0,9.0,76,0.00,,,0.00,VWS V14.01,2013-01-20 10:12:00,
2013-01-20 05:17:00,36.2,29.4,29.73,WSW,244,6.0,10.0,76,0.00,,,0.00,VWS V14.01,2013-01-20 10:17:00,
2013-01-20 05:22:00,36.2,29.4,29.72,SW,229,2.0,10.0,76,0.00,,,0.00,VWS V14.01,2013-01-20 10:22:00,
2013-01-20 05:27:00,36.2,29.4,29.72,SW,217,3.0,10.0,76,0.00,,,0.00,VWS V14.01,2013-01-20 10:27:00,
2013-01-20 05:32:00,36.1,29.3,29.72,SSW,209,4.0,10.0,76,0.00,,,0.00,VWS V14.01,2013-01-20 10:32:00,
2013-01-20 05:37:00,36.1,29.3,29.72,SSW,200,0.0,7.0,76,0.00,,,0.00,VWS V14.01,2013-01-20 10:37:00,
2013-01-20 05:42:00,36.1,29.3,29.71,WSW,243,7.0,12.0,76,0.00,,,0.00,VWS V14.01,2013-01-20 10:42:00,
2013-01-20 05:47:00,36.1,29.3,29.71,SSW,197,2.0,12.0,76,0.00,,,0.00,VWS V14.01,2013-01-20 10:47:00,
2013-01-20 05:52:00,36.1,29.3,29.71,South,180,2.0,12.0,76,0.00,,,0.00,VWS V14.01,2013-01-20 10:52:00,
2013-01-20 05:57:00,36.1,29.3,29.70,SSW,204,2.0,12.0,76,0.00,,,0.00,VWS V14.01,2013-01-20 10:57:00,
2013-01-20 06:02:00,36.1,29.3,29.70,SSW,201,4.0,12.0,76,0.00,,,0.00,VWS V14.01,2013-01-20 11:02:00,
2013-01-20 06:07:00,36.1,29.3,29.70,West,273,1.0,6.0,76,0.00,,,0.00,VWS V14.01,2013-01-20 11:07:00,
2013-01-20 06:12:00,36.0,29.2,29.70,SW,228,2.0,6.0,76,0.00,,,0.00,VWS V14.01,2013-01-20 11:12:00,
2013-01-20 06:17:00,35.9,29.1,29.70,SW,233,7.0,9.0,76,0.00,,,0.00,VWS V14.01,2013-01-20 11:17:00,
2013-01-20 06:22:00,35.9,29.4,29.70,SW,224,4.0,9.0,77,0.00,,,0.00,VWS V14.01,2013-01-20 11:22:00,
2013-01-20 06:27:00,35.8,29.3,29.70,South,190,5.0,10.0,77,0.00,,,0.00,VWS V14.01,2013-01-20 11:27:00,
2013-01-20 06:32:00,35.8,29.3,29.70,WSW,243,4.0,10.0,77,0.00,,,0.00,VWS V14.01,2013-01-20 11:32:00,
2013-01-20 06:37:00,35.7,29.2,29.70,SSW,199,6.0,10.0,77,0.00,,,0.00,VWS V14.01,2013-01-20 11:37:00,
2013-01-20 06:42:00,35.7,29.2,29.70,WSW,256,1.0,14.0,77,0.00,,,0.00,VWS V14.01,2013-01-20 11:42:00,
2013-01-20 06:47:00,35.7,29.2,29.70,WNW,289,6.0,14.0,77,0.00,,,0.00,VWS V14.01,2013-01-20 11:47:00,
2013-01-20 06:52:00,35.6,29.1,29.70,SW,218,2.0,14.0,77,0.00,,,0.00,VWS V14.01,2013-01-20 11:52:00,
2013-01-20 06:57:00,35.6,29.1,29.69,SW,221,4.0,14.0,77,0.00,,,0.00,VWS V14.01,2013-01-20 11:57:00,
2013-01-20 07:02:00,35.5,29.0,29.69,West,261,2.0,14.0,77,0.00,,,0.00,VWS V14.01,2013-01-20 12:02:00,
2013-01-20 07:07:00,35.4,28.9,29.69,SW,223,2.0,8.0,77,0.00,,,0.00,VWS V14.01,2013-01-20 12:07:00,
2013-01-20 07:12:00,35.3,28.8,29.69,SW,214,4.0,8.0,77,0.00,,,0.00,VWS V14.01,2013-01-20 12:12:00,
2013-01-20 07:17:00,35.3,29.1,29.69,SSE,168,2.0,8.0,78,0.00,,,0.00,VWS V14.01,2013-01-20 12:17:00,
2013-01-20 07:22:00,35.3,29.1,29.68,WSW,241,1.0,8.0,78,0.00,,,0.00,VWS V14.01,2013-01-20 12:22:00,
2013-01-20 07:27:00,35.3,29.1,29.68,SSW,208,3.0,9.0,78,0.00,,,0.00,VWS V14.01,2013-01-20 12:27:00,
2013-01-20 07:32:00,35.5,29.0,29.68,SSW,202,2.0,9.0,77,0.00,,,0.00,VWS V14.01,2013-01-20 12:32:00,
2013-01-20 07:37:00,35.6,29.1,29.68,South,191,5.0,7.0,77,0.00,,,0.00,VWS V14.01,2013-01-20 12:37:00,
2013-01-20 07:42:00,35.7,29.2,29.67,SSW,208,2.0,7.0,77,0.00,,,0.00,VWS V14.01,2013-01-20 12:42:00,
2013-01-20 07:47:00,35.8,29.3,29.67,WSW,251,5.0,17.0,77,0.00,,,0.00,VWS V14.01,2013-01-20 12:47:00,
2013-01-20 07:52:00,35.9,29.1,29.67,SSW,212,2.0,17.0,76,0.00,,,0.00,VWS V14.01,2013-01-20 12:52:00,
2013-01-20 07:57:00,36.1,29.3,29.67,WSW,240,1.0,17.0,76,0.00,,,0.00,VWS V14.01,2013-01-20 12:57:00,
2013-01-20 08:02:00,36.2,29.4,29.67,WSW,244,5.0,17.0,76,0.00,,,0.00,VWS V14.01,2013-01-20 13:02:00,
2013-01-20 08:07:00,36.6,29.4,29.67,SSW,193,4.0,5.0,75,0.00,,,0.00,VWS V14.01,2013-01-20 13:07:00,
2013-01-20 08:12:00,36.9,29.7,29.67,WNW,294,9.0,9.0,75,0.00,,,0.00,VWS V14.01,2013-01-20 13:12:00,
2013-01-20 08:17:00,37.4,29.5,29.67,SW,216,4.0,11.0,73,0.00,,,0.00,VWS V14.01,2013-01-20 13:17:00,
2013-01-20 08:22:00,37.5,29.6,29.67,WSW,237,1.0,14.0,73,0.00,,,0.00,VWS V14.01,2013-01-20 13:22:00,
2013-01-20 08:27:00,37.7,29.8,29.67,South,187,2.0,14.0,73,0.00,,,0.00,VWS V14.01,2013-01-20 13:27:00,
2013-01-20 08:32:00,38.1,29.9,29.67,SSW,198,5.0,14.0,72,0.00,,,0.00,VWS V14.01,2013-01-20 13:32:00,
2013-01-20 08:37:00,38.4,29.5,29.67,SSW,209,3.0,8.0,70,0.00,,,0.00,VWS V14.01,2013-01-20 13:37:00,
2013-01-20 08:42:00,38.7,29.8,29.67,West,259,4.0,8.0,70,0.00,,,0.00,VWS V14.01,2013-01-20 13:42:00,
2013-01-20 08:47:00,38.9,29.6,29.67,WSW,249,1.0,10.0,69,0.00,,,0.00,VWS V14.01,2013-01-20 13:47:00,
2013-01-20 08:52:00,39.2,29.9,29.67,SW,216,1.0,10.0,69,0.00,,,0.00,VWS V14.01,2013-01-20 13:52:00,
2013-01-20 08:57:00,39.3,30.0,29.67,West,261,9.0,12.0,69,0.00,,,0.00,VWS V14.01,2013-01-20 13:57:00,
2013-01-20 09:02:00,39.5,29.8,29.67,South,186,3.0,12.0,68,0.00,,,0.00,VWS V14.01,2013-01-20 14:02:00,
2013-01-20 09:07:00,39.7,29.7,29.67,WSW,246,2.0,4.0,67,0.00,,,0.00,VWS V14.01,2013-01-20 14:07:00,
2013-01-20 09:12:00,40.0,29.6,29.67,WSW,241,3.0,7.0,66,0.00,,,0.00,VWS V14.01,2013-01-20 14:12:00,
2013-01-20 09:17:00,40.4,29.6,29.67,West,263,6.0,9.0,65,0.00,,,0.00,VWS V14.01,2013-01-20 14:17:00,
2013-01-20 09:22:00,40.9,29.7,29.67,West,259,8.0,18.0,64,0.00,,,0.00,VWS V14.01,2013-01-20 14:22:00,
2013-01-20 09:27:00,41.5,29.5,29.67,WSW,244,4.0,18.0,62,0.00,,,0.00,VWS V14.01,2013-01-20 14:27:00,
2013-01-20 09:32:00,42.2,29.7,29.67,South,190,4.0,22.0,61,0.00,,,0.00,VWS V14.01,2013-01-20 14:32:00,
2013-01-20 09:38:00,42.8,29.5,29.66,WSW,257,6.0,20.0,59,0.00,,,0.00,VWS V14.01,2013-01-20 14:38:00,
2013-01-20 09:43:00,43.3,29.1,29.67,SSW,204,6.0,20.0,57,0.00,,,0.00,VWS V14.01,2013-01-20 14:43:00,
2013-01-20 09:47:00,43.8,29.1,29.67,SSW,213,2.0,20.0,56,0.00,,,0.00,VWS V14.01,2013-01-20 14:47:00,
2013-01-20 09:52:00,44.1,29.0,29.66,WSW,240,3.0,25.0,55,0.00,,,0.00,VWS V14.01,2013-01-20 14:52:00,
2013-01-20 09:57:00,44.1,29.0,29.66,WSW,252,10.0,25.0,55,0.00,,,0.00,VWS V14.01,2013-01-20 14:57:00,
2013-01-20 10:02:00,44.2,29.1,29.66,West,279,5.0,25.0,55,0.00,,,0.00,VWS V14.01,2013-01-20 15:02:00,
2013-01-20 10:07:00,44.4,28.8,29.66,WNW,286,7.0,8.0,54,0.00,,,0.00,VWS V14.01,2013-01-20 15:07:00,
2013-01-20 10:12:00,44.7,29.1,29.65,South,190,1.0,15.0,54,0.00,,,0.00,VWS V14.01,2013-01-20 15:12:00,
2013-01-20 10:17:00,45.2,28.6,29.65,SSW,196,10.0,17.0,52,0.00,,,0.00,VWS V14.01,2013-01-20 15:17:00,
2013-01-20 10:22:00,45.5,28.9,29.64,SSW,199,7.0,17.0,52,0.00,,,0.00,VWS V14.01,2013-01-20 15:22:00,
2013-01-20 10:27:00,45.8,29.7,29.64,SSW,194,5.0,17.0,53,0.00,,,0.00,VWS V14.01,2013-01-20 15:27:00,
2013-01-20 10:32:00,46.1,29.5,29.64,SSW,202,11.0,17.0,52,0.00,,,0.00,VWS V14.01,2013-01-20 15:32:00,
2013-01-20 10:37:00,46.5,29.4,29.64,SE,140,3.0,11.0,51,0.00,,,0.00,VWS V14.01,2013-01-20 15:37:00,
2013-01-20 10:42:00,46.8,29.6,29.63,West,280,3.0,11.0,51,0.00,,,0.00,VWS V14.01,2013-01-20 15:42:00,
2013-01-20 10:47:00,46.8,29.6,29.63,West,273,4.0,16.0,51,0.00,,,0.00,VWS V14.01,2013-01-20 15:47:00,
2013-01-20 10:52:00,47.0,29.3,29.62,SW,225,5.0,16.0,50,0.00,,,0.00,VWS V14.01,2013-01-20 15:52:00,
2013-01-20 10:57:00,47.2,29.5,29.62,SSE,158,8.0,16.0,50,0.00,,,0.00,VWS V14.01,2013-01-20 15:57:00,
2013-01-20 11:02:00,47.1,29.4,29.62,WSW,248,3.0,16.0,50,0.00,,,0.00,VWS V14.01,2013-01-20 16:02:00,
2013-01-20 11:07:00,47.3,29.6,29.61,NW,306,9.0,10.0,50,0.00,,,0.00,VWS V14.01,2013-01-20 16:07:00,
2013-01-20 11:12:00,47.2,29.0,29.60,SW,227,13.0,19.0,49,0.00,,,0.00,VWS V14.01,2013-01-20 16:12:00,
2013-01-20 11:17:00,47.3,29.1,29.60,WSW,255,8.0,19.0,49,0.00,,,0.00,VWS V14.01,2013-01-20 16:17:00,
2013-01-20 11:22:00,47.2,29.0,29.60,West,281,2.0,19.0,49,0.00,,,0.00,VWS V14.01,2013-01-20 16:22:00,
2013-01-20 11:27:00,47.3,28.6,29.59,SW,214,4.0,19.0,48,0.00,,,0.00,VWS V14.01,2013-01-20 16:27:00,
2013-01-20 11:32:00,47.6,29.4,29.60,West,279,3.0,19.0,49,0.00,,,0.00,VWS V14.01,2013-01-20 16:32:00,
2013-01-20 11:37:00,47.7,29.5,29.59,SW,227,10.0,10.0,49,0.00,,,0.00,VWS V14.01,2013-01-20 16:37:00,
2013-01-20 11:42:00,47.4,28.7,29.59,WSW,243,14.0,16.0,48,0.00,,,0.00,VWS V14.01,2013-01-20 16:42:00,
2013-01-20 11:47:00,47.5,28.8,29.58,WSW,257,4.0,17.0,48,0.00,,,0.00,VWS V14.01,2013-01-20 16:47:00,
2013-01-20 11:52:00,47.3,28.6,29.58,SW,227,12.0,22.0,48,0.00,,,0.00,VWS V14.01,2013-01-20 16:52:00,
2013-01-20 11:57:00,47.2,29.5,29.58,WSW,256,6.0,22.0,50,0.00,,,0.00,VWS V14.01,2013-01-20 16:57:00,
2013-01-20 12:02:00,47.0,28.9,29.57,West,273,7.0,22.0,49,0.00,,,0.00,VWS V14.01,2013-01-20 17:02:00,
2013-01-20 12:07:00,47.0,28.9,29.57,SW,223,7.0,14.0,49,0.00,,,0.00,VWS V14.01,2013-01-20 17:07:00,
2013-01-20 12:12:00,47.2,28.5,29.57,WNW,292,7.0,14.0,48,0.00,,,0.00,VWS V14.01,2013-01-20 17:12:00,
2013-01-20 12:17:00,47.0,28.9,29.58,West,259,4.0,20.0,49,0.00,,,0.00,VWS V14.01,2013-01-20 17:17:00,
2013-01-20 12:22:00,47.2,28.5,29.58,SW,229,9.0,22.0,48,0.00,,,0.00,VWS V14.01,2013-01-20 17:22:00,
2013-01-20 12:27:00,47.4,29.2,29.58,SSW,202,4.0,23.0,49,0.00,,,0.00,VWS V14.01,2013-01-20 17:27:00,
2013-01-20 12:32:00,47.5,29.3,29.57,WSW,256,6.0,23.0,49,0.00,,,0.00,VWS V14.01,2013-01-20 17:32:00,
2013-01-20 12:37:00,47.5,28.8,29.58,SSW,197,1.0,13.0,48,0.00,,,0.00,VWS V14.01,2013-01-20 17:37:00,
2013-01-20 12:42:00,47.1,28.4,29.57,SW,225,9.0,18.0,48,0.00,,,0.00,VWS V14.01,2013-01-20 17:42:00,
2013-01-20 12:47:00,46.8,28.7,29.59,NNW,333,7.0,21.0,49,0.00,,,0.00,VWS V14.01,2013-01-20 17:47:00,
2013-01-20 12:52:00,46.7,28.6,29.59,SW,221,6.0,21.0,49,0.00,,,0.00,VWS V14.01,2013-01-20 17:52:00,
2013-01-20 12:57:00,46.5,28.4,29.58,SW,223,7.0,21.0,49,0.00,,,0.00,VWS V14.01,2013-01-20 17:57:00,
2013-01-20 13:02:00,46.3,28.7,29.59,West,273,6.0,21.0,50,0.00,,,0.00,VWS V14.01,2013-01-20 18:02:00,
2013-01-20 13:07:00,46.2,28.6,29.59,WNW,294,8.0,12.0,50,0.00,,,0.00,VWS V14.01,2013-01-20 18:07:00,
2013-01-20 13:12:00,46.0,28.4,29.59,WSW,254,3.0,15.0,50,0.00,,,0.00,VWS V14.01,2013-01-20 18:12:00,
2013-01-20 13:17:00,45.8,28.7,29.60,WNW,283,5.0,16.0,51,0.00,,,0.00,VWS V14.01,2013-01-20 18:17:00,
2013-01-20 13:22:00,45.7,28.6,29.60,West,265,11.0,21.0,51,0.00,,,0.00,VWS V14.01,2013-01-20 18:22:00,
2013-01-20 13:27:00,45.5,28.4,29.61,SW,223,6.0,21.0,51,0.00,,,0.00,VWS V14.01,2013-01-20 18:27:00,
2013-01-20 13:32:00,45.1,29.0,29.61,WNW,290,5.0,21.0,53,0.00,,,0.00,VWS V14.01,2013-01-20 18:32:00,
2013-01-20 13:37:00,44.3,29.2,29.62,West,274,10.0,20.0,55,0.00,,,0.00,VWS V14.01,2013-01-20 18:37:00,
2013-01-20 13:42:00,43.4,29.6,29.62,NW,308,8.0,20.0,58,0.00,,,0.00,VWS V14.01,2013-01-20 18:42:00,
2013-01-20 13:47:00,43.0,29.7,29.62,West,277,11.0,22.0,59,0.00,,,0.00,VWS V14.01,2013-01-20 18:47:00,
2013-01-20 13:52:00,42.9,29.6,29.63,WNW,295,4.0,22.0,59,0.00,,,0.00,VWS V14.01,2013-01-20 18:52:00,
2013-01-20 13:57:00,42.8,29.5,29.63,WNW,285,8.0,22.0,59,0.00,,,0.00,VWS V14.01,2013-01-20 18:57:00,
2013-01-20 14:02:00,42.7,29.4,29.63,West,274,13.0,22.0,59,0.00,,,0.00,VWS V14.01,2013-01-20 19:02:00,
2013-01-20 14:07:00,42.4,29.5,29.64,NW,317,4.0,14.0,60,0.00,,,0.00,VWS V14.01,2013-01-20 19:07:00,
2013-01-20 14:12:00,42.5,29.6,29.64,WSW,249,6.0,14.0,60,0.00,,,0.00,VWS V14.01,2013-01-20 19:12:00,
2013-01-20 14:17:00,42.4,29.5,29.65,WNW,299,5.0,18.0,60,0.00,,,0.00,VWS V14.01,2013-01-20 19:17:00,
2013-01-20 14:22:00,42.3,29.0,29.65,WNW,297,11.0,18.0,59,0.00,,,0.00,VWS V14.01,2013-01-20 19:22:00,
2013-01-20 14:27:00,42.5,28.8,29.65,West,268,7.0,19.0,58,0.00,,,0.00,VWS V14.01,2013-01-20 19:27:00,
2013-01-20 14:32:00,42.3,28.2,29.65,WNW,292,10.0,19.0,57,0.00,,,0.00,VWS V14.01,2013-01-20 19:32:00,
2013-01-20 14:37:00,42.5,28.4,29.65,West,273,14.0,18.0,57,0.00,,,0.00,VWS V14.01,2013-01-20 19:37:00,
2013-01-20 14:42:00,42.3,27.7,29.65,SW,227,4.0,18.0,56,0.00,,,0.00,VWS V14.01,2013-01-20 19:42:00,
2013-01-20 14:47:00,42.0,27.0,29.65,West,263,6.0,18.0,55,0.00,,,0.00,VWS V14.01,2013-01-20 19:47:00,
2013-01-20 14:52:00,41.8,27.7,29.65,WSW,246,8.0,18.0,57,0.00,,,0.00,VWS V14.01,2013-01-20 19:52:00,
2013-01-20 14:57:00,41.8,27.3,29.65,WSW,254,8.0,21.0,56,0.00,,,0.00,VWS V14.01,2013-01-20 19:57:00,
2013-01-20 15:02:00,41.9,26.9,29.65,West,265,2.0,21.0,55,0.00,,,0.00,VWS V14.01,2013-01-20 20:02:00,
2013-01-20 15:07:00,42.0,27.0,29.66,West,263,6.0,11.0,55,0.00,,,0.00,VWS V14.01,2013-01-20 20:07:00,
2013-01-20 15:12:00,42.1,27.1,29.66,WSW,256,14.0,16.0,55,0.00,,,0.00,VWS V14.01,2013-01-20 20:12:00,
2013-01-20 15:17:00,42.2,26.8,29.66,West,281,12.0,19.0,54,0.00,,,0.00,VWS V14.01,2013-01-20 20:17:00,
2013-01-20 15:22:00,42.4,26.0,29.66,South,173,1.0,19.0,52,0.00,,,0.00,VWS V14.01,2013-01-20 20:22:00,
2013-01-20 15:27:00,42.6,24.8,29.66,NW,325,5.0,19.0,49,0.00,,,0.00,VWS V14.01,2013-01-20 20:27:00,
2013-01-20 15:32:00,42.7,22.9,29.66,WSW,257,8.0,19.0,45,0.00,,,0.00,VWS V14.01,2013-01-20 20:32:00,
2013-01-20 15:37:00,42.6,23.3,29.67,West,263,7.0,12.0,46,0.00,,,0.00,VWS V14.01,2013-01-20 20:37:00,
2013-01-20 15:42:00,42.7,23.4,29.67,WNW,283,15.0,15.0,46,0.00,,,0.00,VWS V14.01,2013-01-20 20:42:00,
2013-01-20 15:47:00,42.7,22.9,29.67,WNW,300,4.0,15.0,45,0.00,,,0.00,VWS V14.01,2013-01-20 20:47:00,
2013-01-20 15:52:00,42.5,23.2,29.68,NW,322,5.0,15.0,46,0.00,,,0.00,VWS V14.01,2013-01-20 20:52:00,
2013-01-20 15:57:00,42.4,22.0,29.68,West,277,6.0,15.0,44,0.00,,,0.00,VWS V14.01,2013-01-20 20:57:00,
2013-01-20 16:02:00,42.4,19.2,29.69,West,267,11.0,19.0,39,0.00,,,0.00,VWS V14.01,2013-01-20 21:02:00,
2013-01-20 16:07:00,42.1,15.8,29.70,West,278,7.0,19.0,34,0.00,,,0.00,VWS V14.01,2013-01-20 21:07:00,
2013-01-20 16:12:00,41.7,14.7,29.70,WNW,290,9.0,20.0,33,0.00,,,0.00,VWS V14.01,2013-01-20 21:12:00,
2013-01-20 16:17:00,41.3,14.4,29.70,WSW,250,9.0,23.0,33,0.00,,,0.00,VWS V14.01,2013-01-20 21:17:00,
2013-01-20 16:22:00,41.0,14.1,29.70,NNW,347,7.0,24.0,33,0.00,,,0.00,VWS V14.01,2013-01-20 21:22:00,
2013-01-20 16:27:00,40.9,14.7,29.71,WSW,251,8.0,24.0,34,0.00,,,0.00,VWS V14.01,2013-01-20 21:27:00,
2013-01-20 16:32:00,40.5,15.0,29.72,WNW,286,5.0,24.0,35,0.00,,,0.00,VWS V14.01,2013-01-20 21:32:00,
2013-01-20 16:37:00,40.0,15.9,29.72,West,272,7.0,9.0,37,0.00,,,0.00,VWS V14.01,2013-01-20 21:37:00,
2013-01-20 16:42:00,39.5,16.0,29.73,West,265,5.0,18.0,38,0.00,,,0.00,VWS V14.01,2013-01-20 21:42:00,
2013-01-20 16:47:00,39.1,16.2,29.73,NW,309,6.0,22.0,39,0.00,,,0.00,VWS V14.01,2013-01-20 21:47:00,
2013-01-20 16:52:00,38.6,15.8,29.74,WSW,249,19.0,22.0,39,0.00,,,0.00,VWS V14.01,2013-01-20 21:52:00,
2013-01-20 16:57:00,38.0,16.4,29.74,West,281,8.0,22.0,41,0.00,,,0.00,VWS V14.01,2013-01-20 21:57:00,
2013-01-20 17:02:00,37.6,16.6,29.75,WNW,294,10.0,22.0,42,0.00,,,0.00,VWS V14.01,2013-01-20 22:02:00,
2013-01-20 17:07:00,37.3,16.9,29.75,NW,315,12.0,13.0,43,0.00,,,0.00,VWS V14.01,2013-01-20 22:07:00,
2013-01-20 17:12:00,36.9,17.0,29.76,WNW,302,11.0,15.0,44,0.00,,,0.00,VWS V14.01,2013-01-20 22:12:00,
2013-01-20 17:17:00,36.5,17.7,29.76,NNW,336,8.0,15.0,46,0.00,,,0.00,VWS V14.01,2013-01-20 22:17:00,
2013-01-20 17:22:00,36.1,17.3,29.76,WNW,283,5.0,16.0,46,0.00,,,0.00,VWS V14.01,2013-01-20 22:22:00,
2013-01-20 17:28:00,35.8,17.6,29.77,West,261,6.0,16.0,47,0.00,,,0.00,VWS V14.01,2013-01-20 22:28:00,
2013-01-20 17:33:00,35.3,17.6,29.77,WNW,284,6.0,20.0,48,0.00,,,0.00,VWS V14.01,2013-01-20 22:33:00,
2013-01-20 17:38:00,34.9,17.2,29.78,West,281,11.0,21.0,48,0.00,,,0.00,VWS V14.01,2013-01-20 22:38:00,
2013-01-20 17:43:00,34.5,17.3,29.78,NNW,336,18.0,21.0,49,0.00,,,0.00,VWS V14.01,2013-01-20 22:43:00,
2013-01-20 17:48:00,34.1,17.0,29.78,WSW,249,5.0,21.0,49,0.00,,,0.00,VWS V14.01,2013-01-20 22:48:00,
2013-01-20 17:53:00,33.9,17.2,29.78,West,275,12.0,21.0,50,0.00,,,0.00,VWS V14.01,2013-01-20 22:53:00,
2013-01-20 17:58:00,33.7,17.5,29.79,WNW,289,9.0,23.0,51,0.00,,,0.00,VWS V14.01,2013-01-20 22:58:00,
2013-01-20 18:03:00,33.4,17.2,29.79,WNW,285,8.0,23.0,51,0.00,,,0.00,VWS V14.01,2013-01-20 23:03:00,
2013-01-20 18:08:00,33.2,17.5,29.79,WNW,284,5.0,13.0,52,0.00,,,0.00,VWS V14.01,2013-01-20 23:08:00,
2013-01-20 18:13:00,32.9,17.7,29.80,West,268,12.0,15.0,53,0.00,,,0.00,VWS V14.01,2013-01-20 23:13:00,
2013-01-20 18:18:00,32.8,17.1,29.80,NW,322,9.0,17.0,52,0.00,,,0.00,VWS V14.01,2013-01-20 23:18:00,
2013-01-20 18:23:00,32.6,16.9,29.80,WNW,290,7.0,17.0,52,0.00,,,0.00,VWS V14.01,2013-01-20 23:23:00,
2013-01-20 18:28:00,32.4,16.8,29.80,WSW,252,4.0,17.0,52,0.00,,,0.00,VWS V14.01,2013-01-20 23:28:00,
2013-01-20 18:33:00,32.2,16.6,29.81,WNW,284,8.0,17.0,52,0.00,,,0.00,VWS V14.01,2013-01-20 23:33:00,
2013-01-20 18:38:00,32.0,16.4,29.81,NW,323,6.0,11.0,52,0.00,,,0.00,VWS V14.01,2013-01-20 23:38:00,
2013-01-20 18:43:00,31.8,16.2,29.82,WNW,290,10.0,13.0,52,0.00,,,0.00,VWS V14.01,2013-01-20 23:43:00,
2013-01-20 18:48:00,31.6,16.0,29.82,WNW,291,3.0,15.0,52,0.00,,,0.00,VWS V14.01,2013-01-20 23:48:00,
2013-01-20 18:53:00,31.4,15.8,29.82,NW,315,4.0,17.0,52,0.00,,,0.00,VWS V14.01,2013-01-20 23:53:00,
2013-01-20 18:58:00,31.2,16.1,29.82,WNW,295,5.0,17.0,53,0.00,,,0.00,VWS V14.01,2013-01-20 23:58:00,
2013-01-20 19:03:00,31.0,15.4,29.82,NW,310,4.0,17.0,52,0.00,,,0.00,VWS V14.01,2013-01-21 00:03:00,
2013-01-20 19:08:00,30.8,15.7,29.82,West,280,7.0,12.0,53,0.00,,,0.00,VWS V14.01,2013-01-21 00:08:00,
2013-01-20 19:13:00,30.6,15.5,29.82,West,281,7.0,18.0,53,0.00,,,0.00,VWS V14.01,2013-01-21 00:13:00,
2013-01-20 19:18:00,30.3,15.2,29.83,WNW,282,12.0,18.0,53,0.00,,,0.00,VWS V14.01,2013-01-21 00:18:00,
2013-01-20 19:23:00,30.1,15.1,29.82,NW,311,9.0,20.0,53,0.00,,,0.00,VWS V14.01,2013-01-21 00:23:00,
2013-01-20 19:28:00,29.9,14.9,29.83,NW,317,9.0,20.0,53,0.00,,,0.00,VWS V14.01,2013-01-21 00:28:00,
2013-01-20 19:33:00,29.7,14.2,29.83,WSW,257,10.0,20.0,52,0.00,,,0.00,VWS V14.01,2013-01-21 00:33:00,
2013-01-20 19:38:00,29.6,14.1,29.83,WNW,292,9.0,18.0,52,0.00,,,0.00,VWS V14.01,2013-01-21 00:38:00,
2013-01-20 19:43:00,29.4,13.1,29.83,WNW,295,11.0,26.0,50,0.00,,,0.00,VWS V14.01,2013-01-21 00:43:00,
2013-01-20 19:48:00,29.3,13.0,29.83,WNW,287,14.0,26.0,50,0.00,,,0.00,VWS V14.01,2013-01-21 00:48:00,
2013-01-20 19:53:00,29.2,12.9,29.84,West,277,7.0,26.0,50,0.00,,,0.00,VWS V14.01,2013-01-21 00:53:00,
2013-01-20 19:58:00,28.9,12.6,29.84,WNW,293,15.0,26.0,50,0.00,,,0.00,VWS V14.01,2013-01-21 00:58:00,
2013-01-20 20:03:00,28.8,12.1,29.85,WNW,282,15.0,26.0,49,0.00,,,0.00,VWS V14.01,2013-01-21 01:03:00,
2013-01-20 20:08:00,28.6,11.9,29.85,NW,306,4.0,18.0,49,0.00,,,0.00,VWS V14.01,2013-01-21 01:08:00,
2013-01-20 20:13:00,28.5,11.8,29.85,West,277,7.0,22.0,49,0.00,,,0.00,VWS V14.01,2013-01-21 01:13:00,
2013-01-20 20:18:00,28.3,11.6,29.85,NW,323,9.0,22.0,49,0.00,,,0.00,VWS V14.01,2013-01-21 01:18:00,
2013-01-20 20:23:00,28.2,11.5,29.86,NW,325,5.0,22.0,49,0.00,,,0.00,VWS V14.01,2013-01-21 01:23:00,
2013-01-20 20:28:00,28.0,11.3,29.87,WNW,282,19.0,22.0,49,0.00,,,0.00,VWS V14.01,2013-01-21 01:28:00,
2013-01-20 20:33:00,27.9,11.2,29.87,West,259,13.0,22.0,49,0.00,,,0.00,VWS V14.01,2013-01-21 01:33:00,
2013-01-20 20:38:00,27.8,10.7,29.87,NW,304,7.0,21.0,48,0.00,,,0.00,VWS V14.01,2013-01-21 01:38:00,
2013-01-20 20:43:00,27.7,10.6,29.88,NW,306,13.0,25.0,48,0.00,,,0.00,VWS V14.01,2013-01-21 01:43:00,
2013-01-20 20:48:00,27.6,10.5,29.88,WNW,285,11.0,30.0,48,0.00,,,0.00,VWS V14.01,2013-01-21 01:48:00,
2013-01-20 20:53:00,27.4,10.8,29.88,West,275,9.0,30.0,49,0.00,,,0.00,VWS V14.01,2013-01-21 01:53:00,
2013-01-20 20:58:00,27.3,9.7,29.88,WNW,286,12.0,30.0,47,0.00,,,0.00,VWS V14.01,2013-01-21 01:58:00,
2013-01-20 21:03:00,27.2,9.6,29.88,WNW,289,10.0,30.0,47,0.00,,,0.00,VWS V14.01,2013-01-21 02:03:00,
2013-01-20 21:08:00,27.1,9.6,29.88,West,262,5.0,21.0,47,0.00,,,0.00,VWS V14.01,2013-01-21 02:08:00,
2013-01-20 21:13:00,27.0,9.9,29.89,West,279,12.0,21.0,48,0.00,,,0.00,VWS V14.01,2013-01-21 02:13:00,
2013-01-20 21:18:00,26.9,9.9,29.89,NW,315,8.0,21.0,48,0.00,,,0.00,VWS V14.01,2013-01-21 02:18:00,
2013-01-20 21:23:00,26.7,9.7,29.89,WNW,282,7.0,21.0,48,0.00,,,0.00,VWS V14.01,2013-01-21 02:23:00,
2013-01-20 21:28:00,26.6,10.0,29.89,West,273,12.0,21.0,49,0.00,,,0.00,VWS V14.01,2013-01-21 02:28:00,
2013-01-20 21:33:00,26.5,9.9,29.89,WNW,298,7.0,21.0,49,0.00,,,0.00,VWS V14.01,2013-01-21 02:33:00,
2013-01-20 21:38:00,26.5,9.5,29.89,WNW,291,9.0,23.0,48,0.00,,,0.00,VWS V14.01,2013-01-21 02:38:00,
2013-01-20 21:43:00,26.4,9.8,29.89,NW,304,11.0,23.0,49,0.00,,,0.00,VWS V14.01,2013-01-21 02:43:00,
2013-01-20 21:48:00,26.3,10.2,29.90,West,274,9.0,23.0,50,0.00,,,0.00,VWS V14.01,2013-01-21 02:48:00,
2013-01-20 21:53:00,26.3,9.8,29.90,West,281,4.0,23.0,49,0.00,,,0.00,VWS V14.01,2013-01-21 02:53:00,
2013-01-20 21:58:00,26.3,9.8,29.91,WSW,247,9.0,23.0,49,0.00,,,0.00,VWS V14.01,2013-01-21 02:58:00,
2013-01-20 22:03:00,26.2,10.1,29.91,West,268,5.0,23.0,50,0.00,,,0.00,VWS V14.01,2013-01-21 03:03:00,
2013-01-20 22:08:00,26.1,10.5,29.91,WNW,299,5.0,13.0,51,0.00,,,0.00,VWS V14.01,2013-01-21 03:08:00,
2013-01-20 22:13:00,26.0,10.4,29.91,West,276,8.0,16.0,51,0.00,,,0.00,VWS V14.01,2013-01-21 03:13:00,
2013-01-20 22:18:00,26.0,10.4,29.91,West,260,5.0,16.0,51,0.00,,,0.00,VWS V14.01,2013-01-21 03:18:00,
2013-01-20 22:23:00,25.9,10.3,29.92,WSW,250,12.0,17.0,51,0.00,,,0.00,VWS V14.01,2013-01-21 03:23:00,
2013-01-20 22:28:00,25.9,10.3,29.92,WNW,290,7.0,18.0,51,0.00,,,0.00,VWS V14.01,2013-01-21 03:28:00,
2013-01-20 22:33:00,25.9,9.8,29.92,WSW,256,9.0,20.0,50,0.00,,,0.00,VWS V14.01,2013-01-21 03:33:00,
2013-01-20 22:38:00,25.9,9.8,29.92,West,275,7.0,19.0,50,0.00,,,0.00,VWS V14.01,2013-01-21 03:38:00,
2013-01-20 22:43:00,25.8,9.3,29.92,NNE,15,9.0,19.0,49,0.00,,,0.00,VWS V14.01,2013-01-21 03:43:00,
2013-01-20 22:48:00,25.8,9.3,29.93,West,260,21.0,29.0,49,0.00,,,0.00,VWS V14.01,2013-01-21 03:48:00,
2013-01-20 22:53:00,25.8,8.8,29.92,West,263,12.0,29.0,48,0.00,,,0.00,VWS V14.01,2013-01-21 03:53:00,
2013-01-20 22:58:00,25.8,8.8,29.92,NNW,331,9.0,29.0,48,0.00,,,0.00,VWS V14.01,2013-01-21 03:58:00,
2013-01-20 23:03:00,25.7,8.7,29.93,NW,306,3.0,29.0,48,0.00,,,0.00,VWS V14.01,2013-01-21 04:03:00,
2013-01-20 23:08:00,25.6,9.1,29.93,WNW,283,3.0,16.0,49,0.00,,,0.00,VWS V14.01,2013-01-21 04:08:00,
2013-01-20 23:13:00,25.5,9.0,29.92,WNW,282,6.0,16.0,49,0.00,,,0.00,VWS V14.01,2013-01-21 04:13:00,
2013-01-20 23:18:00,25.4,8.9,29.92,WSW,245,7.0,16.0,49,0.00,,,0.00,VWS V14.01,2013-01-21 04:18:00,
2013-01-20 23:23:00,25.4,9.4,29.93,WNW,289,4.0,16.0,50,0.00,,,0.00,VWS V14.01,2013-01-21 04:23:00,
2013-01-20 23:28:00,25.3,9.7,29.93,West,270,5.0,16.0,51,0.00,,,0.00,VWS V14.01,2013-01-21 04:28:00,
2013-01-20 23:33:00,25.2,9.6,29.93,West,276,6.0,16.0,51,0.00,,,0.00,VWS V14.01,2013-01-21 04:33:00,
2013-01-20 23:38:00,25.1,9.5,29.93,West,280,11.0,11.0,51,0.00,,,0.00,VWS V14.01,2013-01-21 04:38:00,
2013-01-20 23:43:00,25.1,9.5,29.93,WNW,284,11.0,13.0,51,0.00,,,0.00,VWS V14.01,2013-01-21 04:43:00,
2013-01-20 23:48:00,25.1,9.5,29.93,WNW,300,16.0,16.0,51,0.00,,,0.00,VWS V14.01,2013-01-21 04:48:00,
2013-01-20 23:53:00,25.1,9.1,29.93,WNW,296,9.0,19.0,50,0.00,,,0.00,VWS V14.01,2013-01-21 04:53:00,
2013-01-20 23:58:00,25.1,9.5,29.93,SW,235,8.0,19.0,51,0.00,,,0.00,VWS V14.01,2013-01-21 04:58:00,